{"data":{"norad_id":57371,"intl_designator":"2023-099AV","name":"STARLINK-6032","alt_names":[],"object_type":"PAYLOAD","status":"ACTIVE","operator":null,"country":"US","launch_date":"2023-07-16","launch_site_code":"AFETR","launch_vehicle":null,"mission":null,"orbit_class":"UNKNOWN","rcs_meters":null,"size_class":null,"mass_kg":null,"dimensions":null,"purposes":["comms"],"wikipedia_slug":null,"has_3d_model":false,"image_url":null,"decayed_at":null,"tle_current":{"epoch":"2026-09-20T04:05:57.333408Z","epoch_age_seconds":152769,"freshness":"FRESH","line1":"1 57371U 23099AV  26263.17080247 -.00000227  00000+0  12906-5 0  9998","line2":"2 57371  43.0010 223.2682 0001283 268.3721  91.6984 15.27573596175944","mean_motion":15.27573596,"eccentricity":0.0001283,"inclination_deg":43.001,"raan_deg":223.2682,"arg_perigee_deg":268.3721,"mean_anomaly_deg":91.6984,"bstar":1.2906e-6,"rev_number":17594,"period_min":94.267143905255,"perigee_km":482.18797935008,"apogee_km":483.94856462287,"semimajor_km":6861.2052719865,"source":"CELESTRAK","updated_at":"2026-09-21T09:00:33.620367Z"}}}